FW1310 Weather Reports


Display with metric or nautical units.
time (UTC)temp
F
wind
direction
speed
MPH
gust
MPH
rain 1hr
in
rain 24hr
in
rain mn
in
humidity
%
barometer
mb
20260903211503 97 237 2.0 9.0 0.00 0.00 0.00 53 994.7
20260903211004 96 208 3.0 8.0 0.00 0.00 0.00 54 994.7
20260903210503 96 156 4.0 9.0 0.00 0.00 0.00 53 994.8
20260903210003 97 159 4.0 8.0 0.00 0.00 0.00 53 994.8
20260903205504 97 89 2.0 6.0 0.00 0.00 0.00 52 994.6
20260903204503 97 121 4.0 9.0 0.00 0.00 0.00 51 995.0
20260903204004 98 202 3.0 9.0 0.00 0.00 0.00 50 995.0
20260903203503 98 79 2.0 8.0 0.00 0.00 0.00 50 995.1
20260903202503 98 139 2.0 6.0 0.00 0.00 0.00 49 995.4
20260903202003 97 142 3.0 7.0 0.00 0.00 0.00 50 995.4
20260903201504 97 164 2.0 8.0 0.00 0.00 0.00 51 995.5
20260903201004 97 110 3.0 5.0 0.00 0.00 0.00 51 995.5
20260903200503 98 119 2.0 8.0 0.00 0.00 0.00 50 995.5
20260903200003 97 185 3.0 8.0 0.00 0.00 0.00 51 995.7
20260903195504 97 189 3.0 7.0 0.00 0.00 0.00 52 995.5
20260903195003 97 174 3.0 7.0 0.00 0.00 0.00 51 995.6
20260903194503 97 160 4.0 7.0 0.00 0.00 0.00 51 995.6
20260903194004 97 47 2.0 6.0 0.00 0.00 0.00 51 995.8
20260903193503 97 139 3.0 7.0 0.00 0.00 0.00 51 995.8
20260903193003 96 158 2.0 6.0 0.00 0.00 0.00 51 996.0
20260903192503 96 142 2.0 8.0 0.00 0.00 0.00 52 996.1
20260903191503 97 179 5.0 8.0 0.00 0.00 0.00 53 996.2
20260903191003 96 155 2.0 6.0 0.00 0.00 0.00 53 996.3
20260903190504 96 86 2.0 8.0 0.00 0.00 0.00 53 996.5
20260903185003 95 145 2.0 7.0 0.00 0.00 0.00 55 996.5
20260903184503 95 177 3.0 6.0 0.00 0.00 0.00 55 996.6
20260903184004 95 150 2.0 7.0 0.00 0.00 0.00 54 996.8
20260903183503 95 166 1.0 8.0 0.00 0.00 0.00 55 996.7
20260903182503 93 188 3.0 5.0 0.00 0.00 0.00 56 996.9
20260903182004 93 95 2.0 5.0 0.00 0.00 0.00 57 997.1
20260903181504 93 124 2.0 6.0 0.00 0.00 0.00 57 997.0
20260903181003 93 125 3.0 6.0 0.00 0.00 0.00 57 997.0
20260903180503 93 163 3.0 7.0 0.00 0.00 0.00 58 997.2
20260903180003 92 152 3.0 8.0 0.00 0.00 0.00 57 997.2
20260903175505 93 123 2.0 6.0 0.00 0.00 0.00 55 997.3
20260903174503 92 177 2.0 6.0 0.00 0.00 0.00 56 997.4
20260903174003 92 167 2.0 6.0 0.00 0.00 0.00 55 997.5
20260903173503 92 149 3.0 6.0 0.00 0.00 0.00 55 997.4
20260903173003 92 164 1.0 6.0 0.00 0.00 0.00 55 997.5
20260903172503 91 207 3.0 7.0 0.00 0.00 0.00 57 997.8
20260903172004 92 160 3.0 8.0 0.00 0.00 0.00 57 997.7
20260903171503 92 183 4.0 8.0 0.00 0.00 0.00 57 997.8
20260903171003 91 228 3.0 6.0 0.00 0.00 0.00 58 997.8
20260903170503 91 184 4.0 6.0 0.00 0.00 0.00 60 997.6
20260903170004 91 195 3.0 7.0 0.00 0.00 0.00 60 997.5
20260903165503 90 139 3.0 6.0 0.00 0.00 0.00 60 997.4
20260903165003 90 205 3.0 8.0 0.00 0.00 0.00 62 997.4
20260903164503 90 235 5.0 10.0 0.00 0.00 0.00 62 997.6
20260903164004 89 230 4.0 9.0 0.00 0.00 0.00 63 997.6
20260903163504 89 223 4.0 8.0 0.00 0.00 0.00 63 997.6
20260903163003 89 276 3.0 7.0 0.00 0.00 0.00 64 997.7
20260903162503 89 173 2.0 9.0 0.00 0.00 0.00 66 997.7
20260903162004 89 156 4.0 7.0 0.00 0.00 0.00 66 997.6
20260903161503 87 250 2.0 8.0 0.00 0.00 0.00 69 997.7
20260903161003 87 203 4.0 7.0 0.00 0.00 0.00 69 997.6
20260903160503 87 205 2.0 8.0 0.00 0.00 0.00 70 997.7
20260903160003 86 265 4.0 9.0 0.00 0.00 0.00 71 997.5
20260903155503 86 245 4.0 6.0 0.00 0.00 0.00 72 997.6
20260903155004 86 162 5.0 7.0 0.00 0.00 0.00 72 997.4
20260903154504 85 244 5.0 8.0 0.00 0.00 0.00 73 997.6
20260903154004 85 247 5.0 9.0 0.00 0.00 0.00 73 997.7
20260903153504 85 230 3.0 8.0 0.00 0.00 0.00 73 997.5
20260903153004 85 187 3.0 7.0 0.00 0.00 0.00 74 997.5
20260903152504 85 177 5.0 9.0 0.00 0.00 0.00 75 997.4
20260903152004 85 288 5.0 9.0 0.00 0.00 0.00 75 997.4
20260903151504 85 268 5.0 6.0 0.00 0.00 0.00 75 997.5
20260903151003 84 269 6.0 12.0 0.00 0.00 0.00 77 997.7
20260903150503 84 254 5.0 9.0 0.00 0.00 0.00 77 997.5
20260903145503 84 190 4.0 8.0 0.00 0.00 0.00 78 997.5
20260903145003 83 259 5.0 9.0 0.00 0.00 0.00 78 997.5
20260903144504 83 214 5.0 10.0 0.00 0.00 0.00 79 997.4
20260903143503 83 198 4.0 8.0 0.00 0.00 0.00 80 997.6
20260903142503 83 234 4.0 10.0 0.00 0.00 0.00 81 997.4
20260903142003 83 279 5.0 10.0 0.00 0.00 0.00 80 997.5
20260903141503 83 204 6.0 10.0 0.00 0.00 0.00 81 997.4
20260903141003 82 243 6.0 10.0 0.00 0.00 0.00 82 997.4
20260903140503 82 165 5.0 8.0 0.00 0.00 0.00 83 997.5
20260903140003 82 233 4.0 12.0 0.00 0.00 0.00 83 997.5
20260903135503 82 237 6.0 12.0 0.00 0.00 0.00 83 997.4
20260903135003 82 255 3.0 10.0 0.00 0.00 0.00 85 997.4
20260903134504 81 235 4.0 8.0 0.00 0.00 0.00 85 997.4
20260903134003 81 222 5.0 8.0 0.00 0.00 0.00 86 997.4
20260903133503 80 204 4.0 7.0 0.00 0.00 0.00 88 997.5
20260903133004 80 225 4.0 10.0 0.00 0.00 0.00 89 997.4
20260903132503 79 219 5.0 10.0 0.00 0.00 0.00 89 997.4
20260903131503 79 177 4.0 12.0 0.00 0.00 0.00 90 997.2
20260903131004 79 164 5.0 8.0 0.00 0.00 0.00 90 997.5
20260903130003 79 250 3.0 10.0 0.00 0.00 0.00 91 997.3
20260903125503 79 261 6.0 10.0 0.00 0.00 0.00 91 997.2
20260903125003 79 270 5.0 8.0 0.00 0.00 0.00 91 997.1
20260903124503 79 250 4.0 10.0 0.00 0.00 0.00 92 997.2
20260903124003 78 223 3.0 8.0 0.00 0.00 0.00 92 997.2
20260903123504 78 164 3.0 8.0 0.00 0.00 0.00 92 997.4
20260903123003 78 219 3.0 8.0 0.00 0.00 0.00 92 997.2
20260903122504 78 188 3.0 6.0 0.00 0.00 0.00 92 997.2
20260903122003 78 173 3.0 7.0 0.00 0.00 0.00 92 997.1
20260903121503 78 181 5.0 8.0 0.00 0.00 0.00 92 997.0
20260903121003 78 199 5.0 9.0 0.00 0.00 0.00 92 997.1
20260903120003 78 192 4.0 9.0 0.00 0.00 0.00 92 996.8
20260903115503 78 162 3.0 7.0 0.00 0.00 0.00 92 996.8
20260903115003 78 181 4.0 7.0 0.00 0.00 0.00 92 996.7
20260903114503 78 222 3.0 7.0 0.00 0.00 0.00 92 996.9
20260903114003 78 259 3.0 7.0 0.00 0.00 0.00 92 996.8
20260903113003 78 150 4.0 7.0 0.00 0.00 0.00 92 996.9
20260903112503 78 230 4.0 10.0 0.00 0.00 0.00 92 997.1
20260903111503 78 159 5.0 7.0 0.00 0.00 0.00 92 996.8
20260903111003 78 170 5.0 7.0 0.00 0.00 0.00 92 996.8
20260903110004 78 175 5.0 8.0 0.00 0.00 0.00 92 996.7
20260903105503 78 197 3.0 8.0 0.00 0.00 0.00 92 996.7
20260903104503 78 225 3.0 7.0 0.00 0.00 0.00 92 996.6
20260903104003 78 192 3.0 8.0 0.00 0.00 0.00 91 996.6
20260903103503 78 163 5.0 10.0 0.00 0.00 0.00 91 996.6
20260903103003 78 213 5.0 8.0 0.00 0.00 0.00 91 996.6
20260903102003 78 181 3.0 7.0 0.00 0.00 0.00 91 996.7
20260903101503 78 195 4.0 7.0 0.00 0.00 0.00 91 996.6
20260903100503 79 249 3.0 6.0 0.00 0.00 0.00 91 996.5
20260903100004 79 157 3.0 7.0 0.00 0.00 0.00 90 996.5
20260903095504 79 249 6.0 9.0 0.00 0.00 0.00 90 996.3
20260903094503 79 241 4.0 9.0 0.00 0.00 0.00 90 996.6
20260903093503 79 259 5.0 10.0 0.00 0.00 0.00 90 996.8
20260903093003 79 259 5.0 10.0 0.00 0.00 0.00 90 996.7
20260903092503 79 169 3.0 12.0 0.00 0.00 0.00 89 996.8
20260903091003 79 212 3.0 9.0 0.00 0.00 0.00 89 996.7
20260903090503 79 200 5.0 9.0 0.00 0.00 0.00 89 996.7
20260903090003 79 170 6.0 9.0 0.00 0.00 0.00 89 996.9
20260903085503 79 174 5.0 8.0 0.00 0.00 0.00 88 996.9
20260903085003 79 258 3.0 8.0 0.00 0.00 0.00 88 996.8
20260903084504 79 181 5.0 8.0 0.00 0.00 0.00 88 996.9
20260903084004 79 176 5.0 8.0 0.00 0.00 0.00 87 996.8
20260903083503 79 201 5.0 8.0 0.00 0.00 0.00 87 997.0
20260903082003 80 177 3.0 10.0 0.00 0.00 0.00 86 996.8
20260903081503 80 154 4.0 7.0 0.00 0.00 0.00 85 996.8
20260903081004 80 207 5.0 7.0 0.00 0.00 0.00 85 996.9
20260903080003 80 196 3.0 8.0 0.00 0.00 0.00 84 996.8
20260903075003 80 181 4.0 7.0 0.00 0.00 0.00 83 996.9
20260903074503 80 187 3.0 7.0 0.00 0.00 0.00 83 996.9
20260903074004 80 183 3.0 6.0 0.00 0.00 0.00 82 997.1
20260903073503 80 214 5.0 7.0 0.00 0.00 0.00 82 996.9
20260903073003 80 193 4.0 9.0 0.00 0.00 0.00 81 997.0
20260903072003 80 185 6.0 10.0 0.00 0.00 0.00 81 997.0
20260903071004 81 189 5.0 7.0 0.00 0.00 0.00 80 997.2
20260903070503 81 156 5.0 7.0 0.00 0.00 0.00 80 997.1
20260903070004 81 177 4.0 9.0 0.00 0.00 0.00 79 997.1
20260903065503 81 161 5.0 9.0 0.00 0.00 0.00 78 997.1
20260903064004 81 201 5.0 7.0 0.00 0.00 0.00 77 997.3
20260903063503 81 174 6.0 9.0 0.00 0.00 0.00 77 997.4
20260903063003 80 201 4.0 7.0 0.00 0.00 0.00 78 997.1
20260903062003 80 212 2.0 6.0 0.00 0.00 0.00 81 997.5
20260903061003 80 177 5.0 7.0 0.00 0.00 0.00 81 997.4
20260903060504 80 156 4.0 7.0 0.00 0.00 0.00 80 997.5
20260903060003 80 130 4.0 7.0 0.00 0.00 0.00 81 997.4
20260903055503 80 197 3.0 6.0 0.00 0.00 0.00 81 997.4
20260903055003 80 171 3.0 5.0 0.00 0.00 0.00 81 997.5
20260903054503 80 180 2.0 7.0 0.00 0.00 0.00 81 997.4
20260903054003 80 120 3.0 6.0 0.00 0.00 0.00 81 997.3
20260903053504 80 187 3.0 6.0 0.00 0.00 0.00 81 997.2
20260903053004 80 134 2.0 5.0 0.00 0.00 0.00 81 997.4
20260903051003 80 146 5.0 8.0 0.00 0.00 0.00 80 997.3
20260903050504 80 170 3.0 7.0 0.00 0.00 0.00 80 997.1
20260903050003 80 176 3.0 6.0 0.00 0.00 0.00 79 997.3
20260903045504 81 143 2.0 8.0 0.00 0.00 0.00 79 997.2
20260903045004 81 158 2.0 5.0 0.00 0.00 0.00 78 997.3
20260903044504 81 146 2.0 5.0 0.00 0.00 0.00 77 997.3
20260903044003 81 155 2.0 6.0 0.00 0.00 0.00 76 997.3
20260903043503 82 153 3.0 8.0 0.00 0.00 0.00 76 997.3
20260903042503 82 141 3.0 6.0 0.00 0.00 0.00 75 997.2
20260903042003 82 96 3.0 6.0 0.00 0.00 0.00 74 997.2
20260903041504 82 70 2.0 6.0 0.00 0.00 0.00 74 997.2
20260903041003 82 99 3.0 7.0 0.00 0.00 0.00 73 997.2
20260903040503 83 167 4.0 8.0 0.00 0.00 0.00 72 997.3
20260903040003 83 167 5.0 9.0 0.00 0.00 0.00 72 997.4
20260903035503 83 174 3.0 7.0 0.00 0.00 0.00 72 997.2
20260903035003 83 117 5.0 8.0 0.00 0.00 0.00 71 997.3
20260903034504 84 180 3.0 7.0 0.00 0.00 0.00 70 997.5
20260903034003 84 133 3.0 7.0 0.00 0.00 0.00 69 997.4
20260903033503 84 165 4.0 7.0 0.00 0.00 0.00 68 997.3
20260903033003 85 117 3.0 6.0 0.00 0.00 0.00 66 997.0
20260903032503 85 138 3.0 7.0 0.00 0.00 0.00 65 997.1
20260903032003 85 98 3.0 5.0 0.00 0.00 0.00 64 997.1
20260903031503 86 186 3.0 5.0 0.00 0.00 0.00 64 997.0
20260903031003 86 130 2.0 8.0 0.00 0.00 0.00 63 996.9
20260903030504 86 92 3.0 8.0 0.00 0.00 0.00 62 996.7
20260903030003 87 93 2.0 7.0 0.00 0.00 0.00 62 996.7
20260903025503 88 129 1.0 3.0 0.00 0.00 0.00 62 996.8
20260903025003 88 133 1.0 2.0 0.00 0.00 0.00 60 996.5
20260903024503 88 121 1.0 3.0 0.00 0.00 0.00 59 996.3
20260903024003 88 129 1.0 2.0 0.00 0.00 0.00 59 996.1
20260903023004 89 127 1.0 3.0 0.00 0.00 0.00 59 996.0
20260903022504 89 139 2.0 3.0 0.00 0.00 0.00 58 996.2
20260903022003 89 124 1.0 2.0 0.00 0.00 0.00 58 996.0
20260903021503 89 136 1.0 3.0 0.00 0.00 0.00 58 996.0
20260903021003 89 138 1.0 2.0 0.00 0.00 0.00 58 995.9
20260903020503 89 133 1.0 2.0 0.00 0.00 0.00 57 995.7
20260903020003 89 130 1.0 3.0 0.00 0.00 0.00 57 995.7
20260903015003 89 140 1.0 1.0 0.00 0.00 0.00 58 995.6
20260903014004 89 151 1.0 2.0 0.00 0.00 0.00 58 995.5
20260903013503 89 123 0.0 2.0 0.00 0.00 0.00 59 995.3
20260903013003 89 141 1.0 2.0 0.00 0.00 0.00 58 995.3
20260903012504 89 104 1.0 1.0 0.00 0.00 0.00 58 995.3
20260903012003 90 119 1.0 1.0 0.00 0.00 0.00 57 995.5
20260903010503 91 138 1.0 2.0 0.00 0.00 0.00 54 995.5
20260903010004 92 168 1.0 3.0 0.00 0.00 0.00 52 995.5
20260903005504 92 204 2.0 2.0 0.00 0.00 0.00 50 995.4
20260903005004 92 95 0.0 2.0 0.00 0.00 0.00 50 995.5
20260903004503 93 84 1.0 2.0 0.00 0.00 0.00 49 995.5
20260903003503 93 102 1.0 2.0 0.00 0.00 0.00 48 995.3
20260903003003 93 94 0.0 1.0 0.00 0.00 0.00 48 995.2
20260903002504 93 106 0.0 2.0 0.00 0.00 0.00 48 995.2
20260903002003 93 96 1.0 2.0 0.00 0.00 0.00 49 995.3
20260903000503 92 113 1.0 2.0 0.00 0.00 0.00 50 995.3
20260903000003 92 84 1.0 3.0 0.00 0.00 0.00 50 995.3
20260902235503 93 71 2.0 3.0 0.00 0.00 0.00 50 995.3
20260902234504 92 131 1.0 2.0 0.00 0.00 0.00 49 995.2
20260902234003 92 172 1.0 2.0 0.00 0.00 0.00 49 995.3
20260902233504 92 126 1.0 3.0 0.00 0.00 0.00 49 995.3
20260902233003 93 134 2.0 5.0 0.00 0.00 0.00 48 995.2
20260902232503 93 107 2.0 3.0 0.00 0.00 0.00 47 995.3
20260902232003 93 163 2.0 3.0 0.00 0.00 0.00 47 995.2
20260902231503 93 159 2.0 3.0 0.00 0.00 0.00 48 995.1
20260902231003 93 159 3.0 7.0 0.00 0.00 0.00 49 995.3
20260902230504 93 182 3.0 6.0 0.00 0.00 0.00 50 995.2
20260902230004 94 169 3.0 12.0 0.00 0.00 0.00 49 995.2
20260902225503 93 124 5.0 12.0 0.00 0.00 0.00 51 995.1
20260902225003 98 105 2.0 9.0 0.00 0.00 0.00 45 995.2
20260902224503 101 79 2.0 3.0 0.00 0.00 0.00 40 995.2
20260902224003 104 137 1.0 1.0 0.00 0.00 0.00 37 995.1
20260902223003 103 65 1.0 3.0 0.00 0.00 0.00 38 995.2
20260902222504 103 331 2.0 3.0 0.00 0.00 0.00 38 995.2
20260902221503 103 153 1.0 5.0 0.00 0.00 0.00 38 995.2
20260902221003 103 113 1.0 2.0 0.00 0.00 0.00 38 995.3
20260902220003 102 266 2.0 3.0 0.00 0.00 0.00 38 995.3
20260902215503 102 74 1.0 6.0 0.00 0.00 0.00 39 995.4
20260902214504 102 87 1.0 3.0 0.00 0.00 0.00 40 995.5
20260902212504 100 92 1.0 5.0 0.00 0.00 0.00 42 995.5